sat.trackr.live / text

‹ back to catalog

STARLINK-11329 [DTC]

NORAD 61881 · 2024-204H

PAYLOAD ACTIVE UNKNOWN

§ Identity

Operator
Country
US
Launch date
2024-11-09
Launch site
AFWTR
Launch vehicle
Mass (kg)
RCS (m²)

Purposes: comms

External: N2YO · Heavens-Above · Gunter

§ Orbital elements

Epoch: 2026-05-24T23:01:29.637984Z

Period
91.74 min
Inclination
53.1579°
Eccentricity
0.0000893
Mean motion
15.69707540 rev/d
Perigee alt
359.1 km
Apogee alt
360.3 km
Semi-major
6,737.9 km
B*
6.8660e-6
RAAN
340.2778°
Arg perigee
52.4084°
Mean anomaly
307.7015°
Rev number
8,889

§ Raw data

STARLINK-11329 [DTC]1 61881U 24204H   26144.95937081  .00000244  00000+0  68660-5 0  99952 61881  53.1579 340.2778 0000893  52.4084 307.7015 15.69707540 88890

JSON: /api/v1/satellites/61881 · /tle

For live sub-satellite position, see the globe view (requires WebGL).

§ Visibility from observer

Set your observer location to see the next 7 days of passes ≥ 10°. The values pass through the URL so the page stays shareable.

No JS? Fill the form by hand. The geolocation button needs JavaScript.